Location: Sungai Liu
(2.3667°N, 113.8667°E)
Time: 13:47:33
(UTC+00:00)

Cosmos 2366 rocket - Pass Details

Date: 20 May 2022
Orbit: 955 x 997 km, 82.9° (Epoch: 04 July)

Event Time Altitude Azimuth Distance (km) Brightness Sun altitude
Rises 21:14:54 0° 343° (NNW) 3,628 7.1 -14.7°
Reaches altitude 10° 21:17:30 10° 336° (NNW) 2,688 6.3 -14.1°
Maximum altitude 21:23:14 42° 267° (W) 1,353 4.3 -12.7°
Drops below altitude 10° 21:29:03 10° 198° (SSW) 2,722 6.0 -11.4°
Sets 21:31:44 0° 191° (S) 3,677 6.7 -10.7°
